Time,TemperatureF,DewpointF,PressureIn,WindDirection,WindDirectionDegrees,WindSpeedMPH,WindSpeedGustMPH,Humidity,HourlyPrecipIn,Conditions,Clouds,dailyrainin,SoftwareType,DateUTC
2013-01-22 00:02:00,14.0,-3.0,-100.00,WNW,300,9.0,11.0,46,-99.99,,,-99.99,,2013-01-22 06:02:00,
2013-01-22 00:12:00,14.0,-3.0,-100.00,WNW,290,9.0,10.0,46,-99.99,,,-99.99,,2013-01-22 06:12:00,
2013-01-22 00:22:00,14.0,-3.0,-100.00,WNW,290,9.0,10.0,46,-99.99,,,-99.99,,2013-01-22 06:22:00,
2013-01-22 00:43:00,13.0,-3.0,-100.00,WNW,285,4.0,6.0,47,-99.99,,,-99.99,,2013-01-22 06:43:00,
2013-01-22 00:53:00,13.0,-3.0,-100.00,WNW,290,3.0,4.0,48,-99.99,,,-99.99,,2013-01-22 06:53:00,
2013-01-22 01:02:00,13.0,-3.0,-100.00,WNW,290,3.0,4.0,48,-99.99,,,-99.99,,2013-01-22 07:02:00,
2013-01-22 01:12:00,13.0,-2.0,-100.00,West,265,4.0,8.0,49,-99.99,,,-99.99,,2013-01-22 07:12:00,
2013-01-22 01:22:00,13.0,-3.0,-100.00,NW,305,6.0,9.0,49,-99.99,,,-99.99,,2013-01-22 07:22:00,
2013-01-22 01:32:00,13.0,-2.0,-100.00,NW,310,3.0,6.0,50,-99.99,,,-99.99,,2013-01-22 07:32:00,
2013-01-22 01:42:00,13.0,-2.0,-100.00,NW,310,3.0,6.0,50,-99.99,,,-99.99,,2013-01-22 07:42:00,
2013-01-22 01:53:00,12.0,-2.0,-100.00,WNW,285,1.0,2.0,51,-99.99,,,-99.99,,2013-01-22 07:53:00,
2013-01-22 02:02:00,12.0,-2.0,-100.00,WNW,285,1.0,2.0,51,-99.99,,,-99.99,,2013-01-22 08:02:00,
2013-01-22 02:12:00,12.0,-2.0,-100.00,NW,325,0.0,1.0,52,-99.99,,,-99.99,,2013-01-22 08:12:00,
2013-01-22 02:22:00,12.0,-2.0,-100.00,NW,305,3.0,4.0,53,-99.99,,,-99.99,,2013-01-22 08:22:00,
2013-01-22 02:32:00,12.0,-2.0,-100.00,NW,305,3.0,4.0,53,-99.99,,,-99.99,,2013-01-22 08:32:00,
2013-01-22 02:42:00,12.0,-2.0,-100.00,NW,310,6.0,9.0,52,-99.99,,,-99.99,,2013-01-22 08:42:00,
2013-01-22 02:53:00,12.0,-3.0,-100.00,WNW,295,3.0,6.0,51,-99.99,,,-99.99,,2013-01-22 08:53:00,
2013-01-22 03:02:00,12.0,-3.0,-100.00,WNW,295,3.0,6.0,51,-99.99,,,-99.99,,2013-01-22 09:02:00,
2013-01-22 03:12:00,12.0,-3.0,-100.00,West,275,1.0,3.0,51,-99.99,,,-99.99,,2013-01-22 09:12:00,
2013-01-22 03:22:00,12.0,-3.0,-100.00,WSW,245,1.0,2.0,52,-99.99,,,-99.99,,2013-01-22 09:22:00,
2013-01-22 03:32:00,12.0,-3.0,-100.00,WSW,245,1.0,2.0,52,-99.99,,,-99.99,,2013-01-22 09:32:00,
2013-01-22 03:42:00,11.0,-2.0,-100.00,WNW,285,2.0,3.0,54,-99.99,,,-99.99,,2013-01-22 09:42:00,
2013-01-22 03:52:00,11.0,-2.0,-100.00,WNW,290,2.0,3.0,55,-99.99,,,-99.99,,2013-01-22 09:52:00,
2013-01-22 04:02:00,11.0,-2.0,-100.00,WNW,290,2.0,3.0,55,-99.99,,,-99.99,,2013-01-22 10:02:00,
2013-01-22 04:12:00,11.0,-2.0,-100.00,WNW,285,1.0,3.0,56,-99.99,,,-99.99,,2013-01-22 10:12:00,
2013-01-22 04:22:00,11.0,-1.0,-100.00,NNW,330,6.0,10.0,56,-99.99,,,-99.99,,2013-01-22 10:22:00,
2013-01-22 04:32:00,11.0,-1.0,-100.00,NNW,330,6.0,10.0,56,-99.99,,,-99.99,,2013-01-22 10:32:00,
2013-01-22 04:42:00,12.0,-1.0,-100.00,North,0,4.0,6.0,55,-99.99,,,-99.99,,2013-01-22 10:42:00,
2013-01-22 04:52:00,11.0,-1.0,-100.00,NNW,345,3.0,4.0,56,-99.99,,,-99.99,,2013-01-22 10:52:00,
2013-01-22 05:02:00,11.0,-1.0,-100.00,NNW,345,3.0,4.0,56,-99.99,,,-99.99,,2013-01-22 11:02:00,
2013-01-22 05:12:00,11.0,-2.0,-100.00,NNW,345,6.0,9.0,56,-99.99,,,-99.99,,2013-01-22 11:12:00,
2013-01-22 05:22:00,11.0,-2.0,-100.00,NW,320,6.0,9.0,55,-99.99,,,-99.99,,2013-01-22 11:22:00,
2013-01-22 05:30:00,10.0,-2.0,-100.00,NNW,330,8.0,10.0,56,-99.99,,,-99.99,,2013-01-22 11:30:00,
2013-01-22 05:33:00,11.0,-2.0,-100.00,NW,320,6.0,9.0,55,-99.99,,,-99.99,,2013-01-22 11:33:00,
2013-01-22 05:43:00,11.0,-2.0,-100.00,NW,310,4.0,11.0,55,-99.99,,,-99.99,,2013-01-22 11:43:00,
2013-01-22 05:53:00,10.0,-2.0,-100.00,NNW,345,3.0,4.0,55,-99.99,,,-99.99,,2013-01-22 11:53:00,
2013-01-22 06:03:00,10.0,-2.0,-100.00,NNW,345,3.0,4.0,55,-99.99,,,-99.99,,2013-01-22 12:03:00,
2013-01-22 06:12:00,10.0,-2.0,-100.00,NNW,330,8.0,10.0,56,-99.99,,,-99.99,,2013-01-22 12:12:00,
2013-01-22 06:23:00,10.0,-2.0,-100.00,NNW,330,8.0,10.0,56,-99.99,,,-99.99,,2013-01-22 12:23:00,
2013-01-22 06:43:00,10.0,-2.0,-100.00,WNW,285,4.0,6.0,57,-99.99,,,-99.99,,2013-01-22 12:43:00,
2013-01-22 06:53:00,10.0,-2.0,-100.00,NW,325,8.0,10.0,58,-99.99,,,-99.99,,2013-01-22 12:53:00,
2013-01-22 07:04:00,10.0,-2.0,-100.00,NW,325,8.0,10.0,58,-99.99,,,-99.99,,2013-01-22 13:04:00,
2013-01-22 07:13:00,10.0,-2.0,-100.00,NNW,340,3.0,4.0,58,-99.99,,,-99.99,,2013-01-22 13:13:00,
2013-01-22 07:23:00,10.0,-2.0,-100.00,NNW,335,4.0,6.0,59,-99.99,,,-99.99,,2013-01-22 13:23:00,
2013-01-22 07:33:00,10.0,-2.0,-100.00,NNW,335,4.0,6.0,59,-99.99,,,-99.99,,2013-01-22 13:33:00,
2013-01-22 07:43:00,10.0,-2.0,-100.00,NNW,340,3.0,3.0,60,-99.99,,,-99.99,,2013-01-22 13:43:00,
2013-01-22 07:53:00,10.0,-1.0,-100.00,North,355,3.0,6.0,60,-99.99,,,-99.99,,2013-01-22 13:53:00,
2013-01-22 08:03:00,10.0,-1.0,-100.00,North,355,3.0,6.0,60,-99.99,,,-99.99,,2013-01-22 14:03:00,
2013-01-22 08:13:00,10.0,-2.0,-100.00,NNW,340,3.0,4.0,59,-99.99,,,-99.99,,2013-01-22 14:13:00,
2013-01-22 08:23:00,10.0,-1.0,-100.00,NNW,330,6.0,9.0,58,-99.99,,,-99.99,,2013-01-22 14:23:00,
2013-01-22 08:34:00,10.0,-1.0,-100.00,NNW,330,6.0,9.0,58,-99.99,,,-99.99,,2013-01-22 14:34:00,
2013-01-22 08:44:00,11.0,-2.0,-100.00,NW,325,9.0,12.0,57,-99.99,,,-99.99,,2013-01-22 14:44:00,
2013-01-22 08:54:00,12.0,-1.0,-100.00,NW,320,9.0,16.0,57,-99.99,,,-99.99,,2013-01-22 14:54:00,
2013-01-22 09:03:00,12.0,-1.0,-100.00,NW,320,9.0,16.0,57,-99.99,,,-99.99,,2013-01-22 15:03:00,
2013-01-22 09:13:00,11.0,-2.0,-100.00,NW,320,8.0,11.0,55,-99.99,,,-99.99,,2013-01-22 15:13:00,
2013-01-22 09:23:00,11.0,-2.0,-100.00,NW,310,6.0,9.0,55,-99.99,,,-99.99,,2013-01-22 15:23:00,
2013-01-22 09:34:00,11.0,-2.0,-100.00,NW,310,6.0,9.0,55,-99.99,,,-99.99,,2013-01-22 15:34:00,
2013-01-22 09:43:00,13.0,0.0,-100.00,NNW,335,6.0,9.0,55,-99.99,,,-99.99,,2013-01-22 15:43:00,
2013-01-22 09:53:00,12.0,-1.0,-100.00,NW,320,6.0,9.0,54,-99.99,,,-99.99,,2013-01-22 15:53:00,
2013-01-22 10:03:00,12.0,-1.0,-100.00,NW,320,6.0,9.0,54,-99.99,,,-99.99,,2013-01-22 16:03:00,
2013-01-22 10:13:00,13.0,-1.0,-100.00,WSW,255,4.0,6.0,54,-99.99,,,-99.99,,2013-01-22 16:13:00,
2013-01-22 10:23:00,13.0,-1.0,-100.00,WNW,300,6.0,8.0,53,-99.99,,,-99.99,,2013-01-22 16:23:00,
2013-01-22 10:33:00,13.0,-1.0,-100.00,WNW,300,6.0,8.0,53,-99.99,,,-99.99,,2013-01-22 16:33:00,
2013-01-22 10:43:00,14.0,0.0,-100.00,WNW,290,6.0,9.0,53,-99.99,,,-99.99,,2013-01-22 16:43:00,
2013-01-22 10:54:00,14.0,0.0,-100.00,North,0,2.0,3.0,53,-99.99,,,-99.99,,2013-01-22 16:54:00,
2013-01-22 11:03:00,14.0,0.0,-100.00,North,0,2.0,3.0,53,-99.99,,,-99.99,,2013-01-22 17:03:00,
2013-01-22 11:13:00,15.0,1.0,-100.00,WNW,290,3.0,4.0,52,-99.99,,,-99.99,,2013-01-22 17:13:00,
2013-01-22 11:23:00,16.0,1.0,-100.00,SW,220,0.0,1.0,51,-99.99,,,-99.99,,2013-01-22 17:23:00,
2013-01-22 11:34:00,16.0,1.0,-100.00,SW,220,0.0,1.0,51,-99.99,,,-99.99,,2013-01-22 17:34:00,
2013-01-22 11:43:00,17.0,1.0,-100.00,NW,305,6.0,9.0,50,-99.99,,,-99.99,,2013-01-22 17:43:00,
2013-01-22 11:54:00,18.0,2.0,-100.00,WSW,250,3.0,6.0,49,-99.99,,,-99.99,,2013-01-22 17:54:00,
2013-01-22 12:03:00,18.0,2.0,-100.00,WSW,250,3.0,6.0,49,-99.99,,,-99.99,,2013-01-22 18:03:00,
2013-01-22 12:13:00,17.0,1.0,-100.00,NW,315,6.0,9.0,49,-99.99,,,-99.99,,2013-01-22 18:13:00,
2013-01-22 12:23:00,17.0,1.0,-100.00,WSW,250,4.0,8.0,49,-99.99,,,-99.99,,2013-01-22 18:23:00,
2013-01-22 12:33:00,17.0,1.0,-100.00,WSW,250,4.0,8.0,49,-99.99,,,-99.99,,2013-01-22 18:33:00,
2013-01-22 12:43:00,17.0,0.0,-100.00,West,270,6.0,10.0,47,-99.99,,,-99.99,,2013-01-22 18:43:00,
2013-01-22 12:54:00,17.0,0.0,-100.00,WNW,290,8.0,11.0,47,-99.99,,,-99.99,,2013-01-22 18:54:00,
2013-01-22 13:03:00,17.0,0.0,-100.00,WNW,290,8.0,11.0,47,-99.99,,,-99.99,,2013-01-22 19:03:00,
2013-01-22 13:13:00,17.0,1.0,-100.00,SW,230,6.0,6.0,47,-99.99,,,-99.99,,2013-01-22 19:13:00,
2013-01-22 13:23:00,18.0,1.0,-100.00,WSW,245,9.0,14.0,47,-99.99,,,-99.99,,2013-01-22 19:23:00,
2013-01-22 13:33:00,18.0,1.0,-100.00,WSW,245,9.0,14.0,47,-99.99,,,-99.99,,2013-01-22 19:33:00,
2013-01-22 13:43:00,18.0,1.0,-100.00,WSW,250,9.0,10.0,47,-99.99,,,-99.99,,2013-01-22 19:43:00,
2013-01-22 13:54:00,19.0,2.0,-100.00,West,280,9.0,11.0,47,-99.99,,,-99.99,,2013-01-22 19:54:00,
2013-01-22 14:03:00,19.0,2.0,-100.00,West,280,9.0,11.0,47,-99.99,,,-99.99,,2013-01-22 20:03:00,
2013-01-22 14:13:00,18.0,1.0,-100.00,WSW,250,4.0,6.0,47,-99.99,,,-99.99,,2013-01-22 20:13:00,
2013-01-22 14:23:00,18.0,2.0,-100.00,West,280,6.0,8.0,47,-99.99,,,-99.99,,2013-01-22 20:23:00,
2013-01-22 14:33:00,18.0,2.0,-100.00,West,280,6.0,8.0,47,-99.99,,,-99.99,,2013-01-22 20:33:00,
2013-01-22 14:43:00,19.0,2.0,-100.00,West,280,8.0,10.0,47,-99.99,,,-99.99,,2013-01-22 20:43:00,
2013-01-22 14:53:00,19.0,2.0,-100.00,NW,325,2.0,6.0,47,-99.99,,,-99.99,,2013-01-22 20:53:00,
2013-01-22 15:03:00,19.0,2.0,-100.00,NW,325,2.0,6.0,47,-99.99,,,-99.99,,2013-01-22 21:03:00,
2013-01-22 15:13:00,19.0,2.0,-100.00,NW,305,4.0,4.0,47,-99.99,,,-99.99,,2013-01-22 21:13:00,
2013-01-22 15:23:00,18.0,2.0,-100.00,WNW,290,10.0,14.0,47,-99.99,,,-99.99,,2013-01-22 21:23:00,
2013-01-22 15:33:00,18.0,2.0,-100.00,WNW,290,10.0,14.0,47,-99.99,,,-99.99,,2013-01-22 21:33:00,
2013-01-22 15:43:00,19.0,2.0,-100.00,NW,305,4.0,6.0,47,-99.99,,,-99.99,,2013-01-22 21:43:00,
2013-01-22 15:53:00,19.0,2.0,-100.00,North,355,3.0,4.0,47,-99.99,,,-99.99,,2013-01-22 21:53:00,
2013-01-22 16:03:00,19.0,2.0,-100.00,North,355,3.0,4.0,47,-99.99,,,-99.99,,2013-01-22 22:03:00,
2013-01-22 16:12:00,19.0,2.0,-100.00,NW,325,1.0,4.0,46,-99.99,,,-99.99,,2013-01-22 22:12:00,
2013-01-22 16:22:00,19.0,2.0,-100.00,SSW,205,0.0,1.0,46,-99.99,,,-99.99,,2013-01-22 22:22:00,
2013-01-22 16:32:00,19.0,2.0,-100.00,SSW,205,0.0,1.0,46,-99.99,,,-99.99,,2013-01-22 22:32:00,
2013-01-22 16:43:00,19.0,2.0,-100.00,NW,315,3.0,4.0,46,-99.99,,,-99.99,,2013-01-22 22:43:00,
2013-01-22 16:53:00,19.0,2.0,-100.00,West,270,4.0,6.0,47,-99.99,,,-99.99,,2013-01-22 22:53:00,
2013-01-22 17:03:00,19.0,2.0,-100.00,West,270,4.0,6.0,47,-99.99,,,-99.99,,2013-01-22 23:03:00,
2013-01-22 17:12:00,19.0,2.0,-100.00,West,280,1.0,3.0,47,-99.99,,,-99.99,,2013-01-22 23:12:00,
2013-01-22 17:24:00,19.0,2.0,-100.00,WNW,285,2.0,3.0,47,-99.99,,,-99.99,,2013-01-22 23:24:00,
2013-01-22 17:33:00,19.0,2.0,-100.00,WNW,285,2.0,3.0,47,-99.99,,,-99.99,,2013-01-22 23:33:00,
2013-01-22 17:43:00,19.0,2.0,-100.00,NNW,335,2.0,3.0,47,-99.99,,,-99.99,,2013-01-22 23:43:00,
2013-01-22 17:53:00,19.0,2.0,-100.00,WNW,290,2.0,3.0,48,-99.99,,,-99.99,,2013-01-22 23:53:00,
2013-01-22 18:00:00,19.0,2.0,-100.00,WNW,295,2.0,3.0,48,-99.99,,,-99.99,,2013-01-23 00:00:00,
2013-01-22 18:03:00,19.0,2.0,-100.00,WNW,290,2.0,3.0,48,-99.99,,,-99.99,,2013-01-23 00:03:00,
2013-01-22 18:12:00,18.0,2.0,-100.00,WNW,285,3.0,4.0,48,-99.99,,,-99.99,,2013-01-23 00:12:00,
2013-01-22 18:23:00,19.0,2.0,-100.00,NNW,340,1.0,2.0,48,-99.99,,,-99.99,,2013-01-23 00:23:00,
2013-01-22 18:33:00,19.0,2.0,-100.00,NNW,340,1.0,2.0,48,-99.99,,,-99.99,,2013-01-23 00:33:00,
2013-01-22 18:43:00,19.0,2.0,-100.00,WNW,295,2.0,3.0,48,-99.99,,,-99.99,,2013-01-23 00:43:00,
2013-01-22 18:52:00,19.0,2.0,-100.00,WNW,295,2.0,3.0,48,-99.99,,,-99.99,,2013-01-23 00:52:00,
2013-01-22 19:13:00,18.0,2.0,-100.00,NW,310,0.0,1.0,49,-99.99,,,-99.99,,2013-01-23 01:13:00,
2013-01-22 19:23:00,18.0,2.0,-100.00,NNW,330,1.0,1.0,49,-99.99,,,-99.99,,2013-01-23 01:23:00,
2013-01-22 19:33:00,18.0,2.0,-100.00,NNW,330,1.0,1.0,49,-99.99,,,-99.99,,2013-01-23 01:33:00,
2013-01-22 19:43:00,19.0,3.0,-100.00,WNW,295,0.0,1.0,50,-99.99,,,-99.99,,2013-01-23 01:43:00,
2013-01-22 19:53:00,18.0,3.0,-100.00,WNW,300,0.0,1.0,50,-99.99,,,-99.99,,2013-01-23 01:53:00,
2013-01-22 20:03:00,18.0,3.0,-100.00,WNW,300,0.0,1.0,50,-99.99,,,-99.99,,2013-01-23 02:03:00,
2013-01-22 20:12:00,19.0,3.0,-100.00,SW,220,0.0,1.0,50,-99.99,,,-99.99,,2013-01-23 02:12:00,
2013-01-22 20:23:00,19.0,4.0,-100.00,West,260,1.0,3.0,51,-99.99,,,-99.99,,2013-01-23 02:23:00,
2013-01-22 20:33:00,19.0,4.0,-100.00,West,260,1.0,3.0,51,-99.99,,,-99.99,,2013-01-23 02:33:00,
2013-01-22 20:43:00,19.0,4.0,-100.00,WSW,240,3.0,4.0,52,-99.99,,,-99.99,,2013-01-23 02:43:00,
2013-01-22 20:53:00,19.0,5.0,-100.00,South,190,1.0,3.0,54,-99.99,,,-99.99,,2013-01-23 02:53:00,
2013-01-22 21:03:00,19.0,5.0,-100.00,South,190,1.0,3.0,54,-99.99,,,-99.99,,2013-01-23 03:03:00,
2013-01-22 21:13:00,19.0,5.0,-100.00,West,260,1.0,1.0,54,-99.99,,,-99.99,,2013-01-23 03:13:00,
2013-01-22 21:23:00,19.0,6.0,-100.00,SW,215,4.0,6.0,56,-99.99,,,-99.99,,2013-01-23 03:23:00,
2013-01-22 21:33:00,19.0,6.0,-100.00,SSW,200,2.0,3.0,56,-99.99,,,-99.99,,2013-01-23 03:33:00,
2013-01-22 21:42:00,19.0,6.0,-100.00,SSW,200,2.0,3.0,56,-99.99,,,-99.99,,2013-01-23 03:42:00,
2013-01-22 21:53:00,19.0,6.0,-100.00,WSW,245,1.0,2.0,57,-99.99,,,-99.99,,2013-01-23 03:53:00,
2013-01-22 22:03:00,19.0,6.0,-100.00,WSW,245,1.0,2.0,57,-99.99,,,-99.99,,2013-01-23 04:03:00,
2013-01-22 22:12:00,19.0,6.0,-100.00,West,280,2.0,3.0,57,-99.99,,,-99.99,,2013-01-23 04:12:00,
2013-01-22 22:23:00,19.0,6.0,-100.00,West,260,1.0,2.0,57,-99.99,,,-99.99,,2013-01-23 04:23:00,
2013-01-22 22:33:00,19.0,6.0,-100.00,WSW,255,1.0,3.0,57,-99.99,,,-99.99,,2013-01-23 04:33:00,
2013-01-22 22:43:00,19.0,6.0,-100.00,WSW,255,1.0,3.0,57,-99.99,,,-99.99,,2013-01-23 04:43:00,
2013-01-22 22:53:00,19.0,6.0,-100.00,WSW,245,0.0,0.0,57,-99.99,,,-99.99,,2013-01-23 04:53:00,
2013-01-22 23:03:00,19.0,6.0,-100.00,WSW,245,0.0,0.0,57,-99.99,,,-99.99,,2013-01-23 05:03:00,
2013-01-22 23:12:00,19.0,6.0,-100.00,SSW,195,1.0,2.0,57,-99.99,,,-99.99,,2013-01-23 05:12:00,
2013-01-22 23:22:00,19.0,7.0,-100.00,SSW,210,2.0,3.0,58,-99.99,,,-99.99,,2013-01-23 05:22:00,
2013-01-22 23:30:00,19.0,7.0,-100.00,WSW,250,0.0,1.0,59,-99.99,,,-99.99,,2013-01-23 05:30:00,
2013-01-22 23:33:00,19.0,7.0,-100.00,SSW,210,1.0,3.0,58,-99.99,,,-99.99,,2013-01-23 05:33:00,
2013-01-22 23:43:00,19.0,7.0,-100.00,SSW,210,1.0,3.0,58,-99.99,,,-99.99,,2013-01-23 05:43:00,
2013-01-22 23:53:00,19.0,7.0,-100.00,SW,235,0.0,0.0,59,-99.99,,,-99.99,,2013-01-23 05:53:00,